"Timestamp","TZ","WindDir_Mean (deg)","WindSpd_Mean (km/h)","WindSpd_Min (km/h)","WindSpd_Max (km/h)","Temp_Mean (deg)","RH_Mean (%)","MSLP_Mean (hPa)","Rain_Acc (mm)","Rain_Intensity (mm/h)","Hail_Acc (hits/cm2)","Hail_Intensity (hits/cm2hr)","Solar_Mean (W/m2)"
2022/10/01 00:00:00.009,n,196,6.12,3.96,9.36,17.7,60.1,1017.42,0,0,0,0,0.025253
2022/10/01 00:01:00.001,n,175,1.8,1.44,6.12,17.7,60.1,1017.32,0,0,0,0,0.030479
2022/10/01 00:02:00.001,n,160,2.52,2.16,3.6,17.7,60.2,1017.32,0,0,0,0,0.031357
2022/10/01 00:03:00.001,n,202,7.56,6.12,10.440002,17.7,60.3,1017.32,0,0,0,0,0.030479
2022/10/01 00:04:00.001,n,92,1.08,0.36,2.52,17.7,60.4,1017.32,0,0,0,0,0.029602
2022/10/01 00:05:00.002,n,153,3.96,2.52,7.2,17.7,60.5,1017.42,0,0,0,0,0.02697
2022/10/01 00:06:00.005,n,180,3.6,1.44,6.48,17.6,60.4,1017.42,0,0,0,0,0.02697
2022/10/01 00:07:00.007,n,261,3.6,2.88,4.68,17.6,60.4,1017.42,0,0,0,0,0.029602
2022/10/01 00:08:00.010,n,292,2.16,1.44,2.52,17.6,60.9,1017.42,0,0,0,0,0.027847
2022/10/01 00:09:00.015,n,216,2.88,1.8,4.32,17.6,60.7,1017.42,0,0,0,0,0.030479
2022/10/01 00:10:00.001,n,171,9.36,5.04,13.68,17.6,60.5,1017.42,0,0,0,0,0.025253
2022/10/01 00:11:00.002,n,346,1.08,0.72,1.44,17.6,61,1017.42,0,0,0,0,0.023499
2022/10/01 00:12:00.004,n,163,2.52,1.8,3.24,17.6,60.6,1017.42,0,0,0,0,0.02697
2022/10/01 00:13:00.006,n,221,1.44,0.72,5.4,17.6,60.9,1017.42,0,0,0,0,0.025253
2022/10/01 00:14:00.009,n,186,4.68,3.96,8.28,17.6,60.4,1017.42,0,0,0,0,0.028725
2022/10/01 00:15:00.011,n,222,4.32,3.24,6.48,17.6,60.7,1017.42,0,0,0,0,0.023499
2022/10/01 00:16:00.012,n,199,3.96,2.52,7.56,17.6,60.7,1017.42,0,0,0,0,0.022621
2022/10/01 00:17:00.001,n,222,6.12,3.96,7.56,17.6,61.1,1017.42,0,0,0,0,0.026131
2022/10/01 00:18:00.003,n,185,2.52,0,8.64,17.6,60.9,1017.42,0,0,0,0,0.024376
2022/10/01 00:19:00.002,n,198,4.68,3.96,5.4,17.5,61,1017.42,0,0,0,0,0.024376
2022/10/01 00:20:00.002,n,276,5.04,4.32,5.76,17.5,61.2,1017.32,0,0,0,0,0.024376
2022/10/01 00:21:00.001,n,357,1.44,1.08,2.52,17.5,61.4,1017.32,0,0,0,0,0.022621
2022/10/01 00:22:00.002,n,151,3.6,2.88,3.96,17.5,61.5,1017.32,0,0,0,0,0.019989
2022/10/01 00:23:00.005,n,212,5.04,3.6,7.56,17.5,61.1,1017.32,0,0,0,0,0.020905
2022/10/01 00:24:00.006,n,249,3.6,2.16,5.04,17.5,61.2,1017.32,0,0,0,0,0.020905
2022/10/01 00:25:00.001,n,191,10.440002,7.92,12.6,17.5,61.2,1017.32,0,0,0,0,0.021782
2022/10/01 00:26:00.002,n,258,4.68,3.96,5.76,17.5,61.5,1017.32,0,0,0,0,0.022621
2022/10/01 00:27:00.004,n,267,1.08,0.36,2.16,17.5,62.5,1017.32,0,0,0,0,0.019989
2022/10/01 00:28:00.002,n,257,3.24,0.72,3.96,17.5,61.6,1017.32,0,0,0,0,0.020905
2022/10/01 00:29:00.001,n,181,3.6,1.44,5.76,17.5,61.6,1017.32,0,0,0,0,0.020905
2022/10/01 00:30:00.002,n,186,14.76,11.88,18.359998,17.4,61.3,1017.22,0,0,0,0,0.019989
2022/10/01 00:31:00.001,n,290,2.16,1.44,3.6,17.4,61.4,1017.22,0,0,0,0,0.027008
2022/10/01 00:32:00.002,n,280,3.96,3.24,4.32,17.4,61.5,1017.22,0,0,0,0,0.033989
2022/10/01 00:33:00.001,n,162,11.52,9.36,16.56,17.4,61.4,1017.22,0,0,0,0,0.030479
2022/10/01 00:34:00.003,n,201,2.16,1.08,4.32,17.4,61.7,1017.22,0,0,0,0,0.032234
2022/10/01 00:35:00.005,n,11,2.88,1.44,5.04,17.4,62.3,1017.22,0,0,0,0,0.032234
2022/10/01 00:36:00.011,n,166,12.24,9.36,14.04,17.4,61.6,1017.22,0,0,0,0,0.034866
2022/10/01 00:37:00.001,n,159,6.84,4.68,10.440002,17.4,61.5,1017.22,0,0,0,0,0.032234
2022/10/01 00:38:00.001,n,149,2.88,1.08,3.6,17.4,61.6,1017.22,0,0,0,0,0.027885
2022/10/01 00:39:00.001,n,171,7.92,6.48,11.52,17.4,61.6,1017.32,0,0,0,0,0.027885
2022/10/01 00:40:00.003,n,179,5.04,3.96,9.36,17.4,61.6,1017.32,0,0,0,0,0.032234
2022/10/01 00:41:00.006,n,172,10.8,8.64,15.12,17.4,61.6,1017.32,0,0,0,0,0.028763
2022/10/01 00:42:00.008,n,177,11.52,8.28,14.4,17.4,61.6,1017.22,0,0,0,0,0.033073
2022/10/01 00:43:00.001,n,184,11.88,8.64,15.48,17.3,61.7,1017.22,0,0,0,0,0.02964
2022/10/01 00:44:00.001,n,179,10.440002,7.92,12.96,17.3,61.8,1017.22,0,0,0,0,0.027885
2022/10/01 00:45:00.003,n,178,14.4,11.52,16.56,17.3,61.8,1017.12,0,0,0,0,0.027008
2022/10/01 00:46:00.002,n,157,9.36,7.2,15.12,17.3,61.8,1017.12,0,0,0,0,0.027885
2022/10/01 00:47:00.001,n,166,7.56,3.6,11.16,17.3,61.8,1017.12,0,0,0,0,0.027008
2022/10/01 00:48:00.001,n,175,7.92,5.04,11.52,17.3,61.8,1017.12,0,0,0,0,0.024414
2022/10/01 00:49:00.001,n,201,8.64,7.2,10.08,17.3,61.9,1017.12,0,0,0,0,0.025291
2022/10/01 00:50:00.002,n,160,10.440002,9,12.24,17.3,61.9,1017.12,0,0,0,0,0.024414
2022/10/01 00:51:00.001,n,191,5.04,2.52,7.92,17.3,62,1017.12,0,0,0,0,0.027008
2022/10/01 00:52:00.004,n,179,6.48,3.96,9,17.3,61.9,1017.12,0,0,0,0,0.028763
2022/10/01 00:53:00.007,n,189,7.2,3.24,10.8,17.3,62,1017.12,0,0,0,0,0.025291
2022/10/01 00:54:00.017,n,177,11.88,9,14.04,17.3,62.1,1017.02,0,0,0,0,0.025291
2022/10/01 00:55:00.001,n,194,12.24,9.72,14.76,17.3,62,1017.02,0,0,0,0,0.021782
2022/10/01 00:56:00.005,n,137,2.52,1.44,5.04,17.3,62.1,1017.02,0,0,0,0,0.024414
2022/10/01 00:57:00.001,n,166,9,5.76,12.96,17.3,62.1,1017.02,0,0,0,0,0.027008
2022/10/01 00:58:00.001,n,207,8.64,6.84,10.8,17.2,62,1017.02,0,0,0,0,0.024376
2022/10/01 00:59:00.001,n,260,4.32,3.24,5.76,17.2,62,1017.02,0,0,0,0,0.030441
2022/10/01 01:00:00.003,n,166,6.12,3.6,10.08,17.3,62.1,1017.02,0,0,0,0,0.033073
2022/10/01 01:01:00.005,n,180,6.12,3.6,9,17.3,62,1017.02,0,0,0,0,0.033073
2022/10/01 01:02:00.006,n,176,9.36,6.12,13.32,17.3,62,1017.02,0,0,0,0,0.029564
2022/10/01 01:03:00.052,n,144,4.68,2.16,6.48,17.2,62.1,1017.02,0,0,0,0,0.033951
2022/10/01 01:04:00.001,n,202,5.04,4.32,8.28,17.2,62.1,1017.02,0,0,0,0,0.029564
2022/10/01 01:05:00.001,n,167,3.96,1.8,6.48,17.2,62.2,1017.02,0,0,0,0,0.030441
2022/10/01 01:06:00.005,n,170,5.76,4.32,10.8,17.2,62.1,1017.02,0,0,0,0,0.028725
2022/10/01 01:07:00.001,n,196,9,7.56,11.52,17.2,62,1017.02,0,0,0,0,0.031319
2022/10/01 01:08:00.001,n,305,2.52,1.8,3.6,17.2,62.1,1016.92,0,0,0,0,0.027847
2022/10/01 01:09:00.001,n,197,3.6,2.88,4.68,17.2,62.3,1016.92,0,0,0,0,0.025215
2022/10/01 01:10:00.009,n,182,4.68,3.24,7.92,17.2,62.4,1016.92,0,0,0,0,0.027847
2022/10/01 01:11:00.013,n,183,4.68,3.6,8.64,17.2,62.2,1016.92,0,0,0,0,0.02697
2022/10/01 01:12:00.014,n,220,2.52,0.72,3.96,17.2,62.2,1016.92,0,0,0,0,0.028725
2022/10/01 01:13:00.001,n,163,6.48,2.88,7.92,17.2,62.4,1016.92,0,0,0,0,0.027847
2022/10/01 01:14:00.001,n,174,16.56,12.6,23.759998,17.2,62,1016.92,0,0,0,0,0.030441
2022/10/01 01:15:00.002,n,192,6.84,3.6,9.72,17.2,62.1,1016.92,0,0,0,0,0.027847
2022/10/01 01:16:00.003,n,138,5.4,4.68,6.48,17.2,62.1,1017.02,0,0,0,0,0.026093
2022/10/01 01:17:00.005,n,172,7.92,4.68,13.32,17.2,62.1,1017.02,0,0,0,0,0.030441
2022/10/01 01:18:00.012,n,203,11.16,8.64,12.6,17.2,62.1,1017.02,0,0,0,0,0.030441
2022/10/01 01:19:00.004,n,197,12.24,10.08,14.04,17.2,62.2,1017.02,0,0,0,0,0.02697
2022/10/01 01:20:00.009,n,160,16.2,12.96,19.8,17.2,62.2,1017.02,0,0,0,0,0.027847
2022/10/01 01:21:00.011,n,201,3.6,1.08,6.12,17.2,62.3,1017.02,0,0,0,0,0.02697
2022/10/01 01:22:00.001,n,162,10.08,3.6,14.76,17.2,62.3,1017.02,0,0,0,0,0.022621
2022/10/01 01:23:00.002,n,166,7.56,3.96,11.52,17.2,62.3,1017.02,0,0,0,0,0.023499
2022/10/01 01:24:00.001,n,173,7.56,4.68,12.6,17.2,62.4,1017.02,0,0,0,0,0.022621
2022/10/01 01:25:00.002,n,226,6.48,5.76,6.84,17.2,62.4,1017.02,0,0,0,0,0.024376
2022/10/01 01:26:00.005,n,207,2.52,1.08,6.48,17.2,62.5,1017.12,0,0,0,0,0.025215
2022/10/01 01:27:00.006,n,175,7.56,4.32,9.72,17.1,62.5,1017.12,0,0,0,0,0.025215
2022/10/01 01:28:00.010,n,140,3.6,1.8,5.76,17.1,62.7,1017.12,0,0,0,0,0.022621
2022/10/01 01:29:00.010,n,167,11.52,5.4,13.32,17.1,62.6,1017.12,0,0,0,0,0.027847
2022/10/01 01:30:00.012,n,169,3.24,1.08,6.84,17.1,62.7,1017.12,0,0,0,0,0.028725
2022/10/01 01:31:00.001,n,149,7.56,3.24,13.68,17.1,62.6,1017.12,0,0,0,0,0.032196
2022/10/01 01:32:00.002,n,112,1.44,0.36,5.76,17.1,62.8,1017.12,0,0,0,0,0.031357
2022/10/01 01:33:00.003,n,40,3.24,1.08,4.32,17.1,63.4,1017.02,0,0,0,0,0.031357
2022/10/01 01:34:00.001,n,249,4.68,3.6,5.4,17.1,63.1,1017.12,0,0,0,0,0.033073
2022/10/01 01:35:00.001,n,288,2.16,1.8,2.88,17.1,63.4,1017.12,0,0,0,0,0.027008
2022/10/01 01:36:00.002,n,294,4.32,3.96,4.32,17.1,63.5,1017.12,0,0,0,0,0.032196
2022/10/01 01:37:00.002,n,170,0.36,0.36,0.36,17.2,63.1,1017.12,0,0,0,0,0.027847
2022/10/01 01:38:00.003,n,39,2.52,0.72,4.32,17.2,63.1,1017.12,0,0,0,0,0.031357
2022/10/01 01:39:00.004,n,250,1.44,1.44,2.16,17.1,62.9,1017.12,0,0,0,0,0.027008
2022/10/01 01:40:00.001,n,208,2.16,0.36,5.04,17.1,63.4,1017.12,0,0,0,0,0.030479
2022/10/01 01:41:00.004,n,222,3.6,3.24,3.96,17.1,62.9,1017.12,0,0,0,0,0.031357
2022/10/01 01:42:00.007,n,259,2.52,2.52,2.88,17.1,63.3,1017.12,0,0,0,0,0.028725
2022/10/01 01:43:00.002,n,192,2.52,0.72,5.4,17.1,63.1,1017.12,0,0,0,0,0.032196
2022/10/01 01:44:00.002,n,291,10.08,8.64,10.8,17,63.6,1017.12,0,0,0,0,0.032196
2022/10/01 01:45:00.002,n,256,1.08,0.36,1.44,17,63.8,1017.12,0,0,0,0,0.028725
2022/10/01 01:46:00.002,n,319,1.8,1.08,2.52,17,63.5,1017.12,0,0,0,0,0.029602
2022/10/01 01:47:00.005,n,326,2.16,1.8,2.88,17,63.4,1017.12,0,0,0,0,0.031357
2022/10/01 01:48:00.007,n,190,3.24,1.44,5.76,17,63.5,1017.12,0,0,0,0,0.033073
2022/10/01 01:49:00.002,n,214,2.88,2.16,3.6,17,63.8,1017.12,0,0,0,0,0.031357
2022/10/01 01:50:00.002,n,205,1.8,1.08,3.6,17,63.6,1017.12,0,0,0,0,0.027847
2022/10/01 01:51:00.002,n,258,1.8,1.08,3.24,17,63.7,1017.12,0,0,0,0,0.027008
2022/10/01 01:52:00.005,n,196,7.56,6.48,11.52,17,63.6,1017.12,0,0,0,0,0.032196
2022/10/01 01:53:00.009,n,253,5.4,3.96,6.48,17,63.5,1017.12,0,0,0,0,0.032196
2022/10/01 01:54:00.001,n,254,3.24,2.16,4.32,17,63.5,1017.12,0,0,0,0,0.033073
2022/10/01 01:55:00.001,n,154,2.88,1.08,3.6,17,64.300004,1017.12,0,0,0,0,0.027847
2022/10/01 01:56:00.001,n,164,0.36,0,1.08,17,64.4,1017.22,0,0,0,0,0.027008
2022/10/01 01:57:00.005,n,204,5.4,3.24,7.56,17,63.7,1017.12,0,0,0,0,0.028725
2022/10/01 01:58:00.001,n,244,1.8,1.44,2.16,17,63.8,1017.12,0,0,0,0,0.030479
2022/10/01 01:59:00.001,n,309,2.88,2.52,3.24,17,64.5,1017.12,0,0,0,0,0.028725
2022/10/01 02:00:00.002,n,150,1.8,0.72,6.48,17,63.8,1017.12,0,0,0,0,0.030479
2022/10/01 02:01:00.001,n,264,1.44,0.36,1.8,17,64,1017.12,0,0,0,0,0.031357
2022/10/01 02:02:00.001,n,218,3.24,1.8,4.32,16.9,63.9,1017.12,0,0,0,0,0.028725
2022/10/01 02:03:00.003,n,215,1.8,0.72,5.76,16.9,63.9,1017.12,0,0,0,0,0.030479
2022/10/01 02:04:00.012,n,296,1.44,0.36,3.6,16.9,64.300004,1017.12,0,0,0,0,0.028725
2022/10/01 02:05:00.015,n,247,3.24,2.16,4.68,16.9,64.300004,1017.12,0,0,0,0,0.031357
2022/10/01 02:06:00.003,n,174,2.52,0.36,5.76,16.9,63.9,1017.12,0,0,0,0,0.027008
2022/10/01 02:07:00.001,n,188,4.68,3.6,6.48,16.9,64.199996,1017.12,0,0,0,0,0.027008
2022/10/01 02:08:00.001,n,231,6.84,4.32,7.92,16.9,64,1017.12,0,0,0,0,0.027008
2022/10/01 02:09:00.002,n,245,1.8,1.08,2.52,16.9,64.1,1017.12,0,0,0,0,0.027008
2022/10/01 02:10:00.002,n,257,2.16,1.44,2.88,16.9,64.699996,1017.12,0,0,0,0,0.031357
2022/10/01 02:11:00.001,n,270,5.04,4.32,5.4,16.9,64.300004,1017.12,0,0,0,0,0.028725
2022/10/01 02:12:00.001,n,180,2.16,0.72,4.68,16.8,64.5,1017.12,0,0,0,0,0.029602
2022/10/01 02:13:00.005,n,229,2.52,1.8,3.96,16.8,65.199996,1017.12,0,0,0,0,0.029602
2022/10/01 02:14:00.008,n,285,0.72,0.36,0.72,16.8,64.4,1017.22,0,0,0,0,0.031357
2022/10/01 02:15:00.011,n,299,2.16,1.8,3.24,16.8,64.4,1017.22,0,0,0,0,0.027008
2022/10/01 02:16:00.002,n,254,1.8,1.44,2.52,16.8,64.9,1017.22,0,0,0,0,0.033951
2022/10/01 02:17:00.001,n,218,2.52,1.44,2.88,16.8,64.5,1017.22,0,0,0,0,0.030479
2022/10/01 02:18:00.001,n,196,4.32,3.6,5.04,16.8,64.6,1017.12,0,0,0,0,0.029602
2022/10/01 02:19:00.002,n,258,1.8,0.72,6.84,16.8,64.800004,1017.12,0,0,0,0,0.028725
2022/10/01 02:20:00.001,n,268,2.88,2.16,3.24,16.8,65.4,1017.12,0,0,0,0,0.027847
2022/10/01 02:21:00.004,n,200,2.16,1.08,6.84,16.8,64.800004,1017.12,0,0,0,0,0.029602
2022/10/01 02:22:00.009,n,186,2.52,2.16,3.24,16.8,64.6,1017.12,0,0,0,0,0.028725
2022/10/01 02:23:00.011,n,146,0.72,0.36,5.04,16.700002,64.6,1017.12,0,0,0,0,0.028725
2022/10/01 02:24:00.014,n,32,1.08,0.36,2.52,16.700002,64.800004,1017.12,0,0,0,0,0.028725
2022/10/01 02:25:00.002,n,267,2.88,2.52,3.6,16.700002,64.6,1017.12,0,0,0,0,0.028725
2022/10/01 02:26:00.001,n,208,4.32,3.24,6.84,16.700002,64.699996,1017.12,0,0,0,0,0.031357
2022/10/01 02:27:00.006,n,347,5.76,3.24,9.36,16.700002,65.4,1017.12,0,0,0,0,0.030479
2022/10/01 02:28:00.010,n,227,0.72,0.36,1.44,16.700002,65.199996,1017.12,0,0,0,0,0.029602
2022/10/01 02:29:00.010,n,330,1.8,1.08,2.52,16.700002,64.9,1017.12,0,0,0,0,0.027008
2022/10/01 02:30:00.001,n,230,0.72,0.36,3.96,16.700002,65,1017.12,0,0,0,0,0.026131
2022/10/01 02:31:00.001,n,234,5.4,5.04,5.76,16.700002,64.699996,1017.12,0,0,0,0,0.027847
2022/10/01 02:32:00.003,n,252,0.72,0.36,1.08,16.700002,64.9,1017.12,0,0,0,0,0.027847
2022/10/01 02:33:00.005,n,87,0.36,0,1.08,16.700002,65,1017.02,0,0,0,0,0.023499
2022/10/01 02:34:00.001,n,241,3.96,2.52,5.04,16.700002,64.9,1017.02,0,0,0,0,0.032196
2022/10/01 02:35:00.001,n,231,3.24,1.44,5.04,16.700002,65.1,1017.02,0,0,0,0,0.027008
2022/10/01 02:36:00.001,n,150,1.44,0.36,2.16,16.700002,64.9,1017.02,0,0,0,0,0.029602
2022/10/01 02:37:00.001,n,283,2.16,1.08,3.6,16.700002,65.4,1017.02,0,0,0,0,0.027847
2022/10/01 02:38:00.001,n,110,1.8,1.44,3.24,16.700002,65.1,1016.92,0,0,0,0,0.026131
2022/10/01 02:39:00.004,n,258,2.88,1.8,3.96,16.700002,65.199996,1016.92,0,0,0,0,0.026131
2022/10/01 02:40:00.012,n,273,3.24,2.88,3.6,16.700002,65,1016.92,0,0,0,0,0.027847
2022/10/01 02:41:00.014,n,268,3.96,1.44,5.04,16.6,65.1,1016.92,0,0,0,0,0.029602
2022/10/01 02:42:00.015,n,234,3.24,1.08,5.04,16.6,65.300004,1016.92,0,0,0,0,0.026131
2022/10/01 02:43:00.002,n,188,3.6,2.88,3.96,16.6,65.1,1016.92,0,0,0,0,0.027008
2022/10/01 02:44:00.003,n,290,2.88,0.72,3.6,16.6,65.199996,1016.92,0,0,0,0,0.024376
2022/10/01 02:45:00.006,n,273,4.32,3.24,6.12,16.6,65.4,1016.92,0,0,0,0,0.026131
2022/10/01 02:46:00.001,n,222,1.8,0.72,3.96,16.6,65.5,1016.92,0,0,0,0,0.026131
2022/10/01 02:47:00.001,n,230,3.24,2.52,4.32,16.6,65.800004,1016.92,0,0,0,0,0.027008
2022/10/01 02:48:00.002,n,280,2.16,1.8,2.88,16.6,65.9,1016.92,0,0,0,0,0.027008
2022/10/01 02:49:00.002,n,289,3.96,3.24,4.32,16.6,65.699996,1016.82,0,0,0,0,0.029602
2022/10/01 02:50:00.011,n,262,6.12,5.04,6.84,16.5,65.6,1016.82,0,0,0,0,0.026131
2022/10/01 02:51:00.005,n,275,6.48,6.12,6.84,16.5,65.6,1016.82,0,0,0,0,0.027008
2022/10/01 02:52:00.001,n,242,4.68,1.8,6.12,16.5,65.6,1016.82,0,0,0,0,0.023499
2022/10/01 02:53:00.001,n,232,3.96,0.72,5.04,16.5,65.6,1016.82,0,0,0,0,0.028725
2022/10/01 02:54:00.001,n,254,6.12,5.76,6.48,16.5,65.9,1016.72,0,0,0,0,0.023499
2022/10/01 02:55:00.002,n,189,2.52,0.36,5.76,16.5,65.699996,1016.72,0,0,0,0,0.027847
2022/10/01 02:56:00.005,n,241,5.4,2.88,7.56,16.5,65.800004,1016.72,0,0,0,0,0.027008
2022/10/01 02:57:00.009,n,223,2.16,1.08,3.24,16.5,66.1,1016.62,0,0,0,0,0.023499
2022/10/01 02:58:00.013,n,228,3.96,2.52,4.68,16.5,65.800004,1016.62,0,0,0,0,0.021782
2022/10/01 02:59:00.013,n,246,5.4,4.68,5.76,16.5,65.9,1016.62,0,0,0,0,0.025215
2022/10/01 03:00:00.014,n,270,3.96,3.6,4.68,16.5,65.800004,1016.62,0,0,0,0,0.026131
2022/10/01 03:01:00.001,n,255,3.6,1.08,4.68,16.5,65.6,1016.62,0,0,0,0,0.024376
2022/10/01 03:02:00.003,n,265,2.16,1.8,2.16,16.5,65.6,1016.72,0,0,0,0,0.025215
2022/10/01 03:03:00.002,n,267,5.04,3.96,5.4,16.5,65.699996,1016.72,0,0,0,0,0.024376
2022/10/01 03:04:00.001,n,272,5.04,4.32,5.4,16.4,65.699996,1016.72,0,0,0,0,0.022621
2022/10/01 03:05:00.001,n,275,6.48,5.76,7.2,16.4,65.800004,1016.72,0,0,0,0,0.020027
2022/10/01 03:06:00.004,n,258,4.68,1.08,5.4,16.4,65.9,1016.72,0,0,0,0,0.027008
2022/10/01 03:07:00.006,n,257,4.32,1.44,5.04,16.4,65.9,1016.72,0,0,0,0,0.023499
2022/10/01 03:08:00.008,n,237,2.88,2.88,3.24,16.4,66,1016.72,0,0,0,0,0.023499
2022/10/01 03:09:00.011,n,264,5.4,5.04,6.12,16.4,66,1016.72,0,0,0,0,0.023499
2022/10/01 03:10:00.001,n,276,5.04,3.96,5.4,16.4,66.1,1016.72,0,0,0,0,0.018272
2022/10/01 03:11:00.002,n,276,5.76,5.4,6.12,16.4,66.1,1016.72,0,0,0,0,0.023499
2022/10/01 03:12:00.005,n,237,2.16,1.44,3.24,16.4,66.199996,1016.72,0,0,0,0,0.023499
2022/10/01 03:13:00.002,n,265,1.8,1.08,2.52,16.4,66.199996,1016.72,0,0,0,0,0.020027
2022/10/01 03:14:00.008,n,279,1.44,1.44,1.8,16.3,66.199996,1016.82,0,0,0,0,0.023499
2022/10/01 03:15:00.001,n,307,1.8,1.44,2.52,16.3,66.4,1016.82,0,0,0,0,0.020866
2022/10/01 03:16:00.014,n,247,2.88,1.44,5.04,16.3,66.6,1016.82,0,0,0,0,0.021782
2022/10/01 03:17:00.001,n,234,1.8,0.36,5.76,16.3,66.5,1016.82,0,0,0,0,0.025215
2022/10/01 03:18:00.001,n,136,2.52,2.16,2.52,16.3,66.800004,1016.82,0,0,0,0,0.021782
2022/10/01 03:19:00.001,n,271,2.88,2.16,3.6,16.3,67.3,1016.82,0,0,0,0,0.022621
2022/10/01 03:20:00.001,n,207,2.88,2.52,2.88,16.3,67.2,1016.82,0,0,0,0,0.022621
2022/10/01 03:21:00.001,n,252,2.88,2.52,3.24,16.3,66.9,1016.82,0,0,0,0,0.020027
2022/10/01 03:22:00.001,n,124,1.08,0.36,1.44,16.3,67.1,1016.82,0,0,0,0,0.026131
2022/10/01 03:23:00.003,n,165,8.64,2.88,13.68,16.3,67,1016.82,0,0,0,0,0.024376
2022/10/01 03:24:00.005,n,319,3.96,2.88,7.92,16.3,67.5,1016.82,0,0,0,0,0.020866
2022/10/01 03:25:00.007,n,156,1.08,0.36,1.44,16.3,67,1016.82,0,0,0,0,0.022621
2022/10/01 03:26:00.015,n,172,6.12,3.96,8.28,16.3,67,1016.82,0,0,0,0,0.018272
2022/10/01 03:27:00.002,n,194,0.72,0.36,1.44,16.3,66.9,1016.92,0,0,0,0,0.020866
2022/10/01 03:28:00.003,n,154,16.56,12.24,18,16.3,66.699996,1016.82,0,0,0,0,0.01915
2022/10/01 03:29:00.001,n,172,5.76,4.32,8.28,16.3,66.699996,1016.92,0,0,0,0,0.018272
2022/10/01 03:30:00.001,n,190,1.08,0.36,5.04,16.3,66.800004,1016.92,0,0,0,0,0.020027
2022/10/01 03:31:00.007,n,233,1.44,1.08,2.16,16.4,66.800004,1016.92,0,0,0,0,0.020027
2022/10/01 03:32:00.004,n,162,3.6,1.8,7.2,16.4,66.9,1016.92,0,0,0,0,0.01564
2022/10/01 03:33:00.007,n,2,3.6,1.44,7.92,16.4,67.1,1016.92,0,0,0,0,0.018272
2022/10/01 03:34:00.009,n,286,0.72,0.36,0.72,16.4,67,1017.02,0,0,0,0,0.01915
2022/10/01 03:35:00.012,n,151,3.6,1.44,6.48,16.4,66.800004,1016.92,0,0,0,0,0.021782
2022/10/01 03:36:00.015,n,206,2.52,1.8,3.24,16.4,66.800004,1017.02,0,0,0,0,0.01564
2022/10/01 03:37:00.001,n,63,1.08,0,2.52,16.4,67,1017.02,0,0,0,0,0.017433
2022/10/01 03:38:00.002,n,275,7.56,4.68,8.28,16.4,66.5,1016.92,0,0,0,0,0.017433
2022/10/01 03:39:00.004,n,137,1.8,1.44,2.52,16.3,66.6,1016.92,0,0,0,0,0.018272
2022/10/01 03:40:00.008,n,196,3.96,2.52,5.4,16.3,66.6,1016.92,0,0,0,0,0.013924
2022/10/01 03:41:00.010,n,293,1.8,1.08,2.16,16.3,66.800004,1016.92,0,0,0,0,0.01564
2022/10/01 03:42:00.012,n,191,2.52,1.8,3.96,16.3,66.699996,1016.92,0,0,0,0,0.014801
2022/10/01 03:43:00.001,n,258,3.6,0.72,4.32,16.3,67.1,1016.92,0,0,0,0,0.023499
2022/10/01 03:44:00.002,n,240,2.52,1.8,3.24,16.3,66.800004,1016.92,0,0,0,0,0.025215
2022/10/01 03:45:00.010,n,231,1.08,0,2.16,16.3,66.9,1016.92,0,0,0,0,0.028725
2022/10/01 03:46:00.002,n,229,2.88,1.44,3.6,16.3,67.4,1016.92,0,0,0,0,0.025215
2022/10/01 03:47:00.001,n,119,2.16,1.08,2.88,16.3,66.9,1016.82,0,0,0,0,0.027847
2022/10/01 03:48:00.001,n,218,1.8,0.72,5.76,16.3,67,1016.82,0,0,0,0,0.023499
2022/10/01 03:49:00.001,n,270,1.08,0.36,1.44,16.3,67,1016.82,0,0,0,0,0.026131
2022/10/01 03:50:00.001,n,235,3.24,1.8,4.68,16.3,67.1,1016.82,0,0,0,0,0.026131
2022/10/01 03:51:00.001,n,225,3.96,2.52,5.04,16.200002,66.9,1016.92,0,0,0,0,0.023499
2022/10/01 03:52:00.003,n,264,0.72,0.36,1.44,16.200002,67.1,1016.92,0,0,0,0,0.024376
2022/10/01 03:53:00.005,n,283,1.08,0.72,1.8,16.200002,67.1,1016.92,0,0,0,0,0.023499
2022/10/01 03:54:00.008,n,175,2.16,0,4.32,16.200002,67.2,1016.92,0,0,0,0,0.024376
2022/10/01 03:55:00.001,n,356,0.72,0.36,0.72,16.200002,67.6,1016.92,0,0,0,0,0.024376
2022/10/01 03:56:00.001,n,163,4.32,2.52,7.92,16.200002,67.3,1016.82,0,0,0,0,0.027847
2022/10/01 03:57:00.002,n,179,1.44,0,4.68,16.200002,67.7,1016.82,0,0,0,0,0.024376
2022/10/01 03:58:00.003,n,85,1.8,0.72,7.56,16.200002,67.6,1016.82,0,0,0,0,0.025215
2022/10/01 03:59:00.009,n,258,4.32,3.24,7.56,16.1,67.6,1016.82,0,0,0,0,0.025215
2022/10/01 04:00:00.011,n,195,4.68,3.24,7.56,16.1,67.7,1016.82,0,0,0,0,0.024376
2022/10/01 04:01:00.013,n,192,6.48,2.88,7.56,16.1,67.7,1016.92,0,0,0,0,0.026131
2022/10/01 04:02:00.015,n,194,1.8,1.08,2.88,16.1,67.5,1016.82,0,0,0,0,0.026131
2022/10/01 04:03:00.018,n,182,6.48,3.96,9.36,16.200002,67.4,1016.92,0,0,0,0,0.024376
2022/10/01 04:04:00.003,n,305,5.04,3.6,6.48,16.200002,67.6,1016.92,0,0,0,0,0.025215
2022/10/01 04:05:00.005,n,245,2.52,2.16,2.88,16.200002,67.6,1016.92,0,0,0,0,0.020866
2022/10/01 04:06:00.006,n,193,2.88,2.52,3.24,16.200002,67.5,1016.92,0,0,0,0,0.025215
2022/10/01 04:07:00.008,n,183,3.6,2.16,6.12,16.200002,67.5,1016.92,0,0,0,0,0.023499
2022/10/01 04:08:00.010,n,285,2.88,2.52,3.24,16.200002,67.7,1016.92,0,0,0,0,0.022621
2022/10/01 04:09:00.002,n,215,2.88,1.8,4.32,16.1,67.7,1017.02,0,0,0,0,0.024376
2022/10/01 04:10:00.001,n,170,3.24,2.52,4.68,16.1,68,1017.02,0,0,0,0,0.021782
2022/10/01 04:11:00.006,n,161,2.16,1.08,5.4,16.1,67.8,1017.02,0,0,0,0,0.022621
2022/10/01 04:12:00.009,n,193,1.8,0.72,4.32,16.1,67.9,1017.02,0,0,0,0,0.023499
2022/10/01 04:13:00.002,n,291,5.04,3.96,6.12,16.1,68,1017.02,0,0,0,0,0.021782
2022/10/01 04:14:00.001,n,181,6.84,3.96,8.64,16.1,68,1017.02,0,0,0,0,0.02697
2022/10/01 04:15:00.006,n,266,3.24,1.44,4.32,16.1,68.1,1017.02,0,0,0,0,0.024376
2022/10/01 04:16:00.001,n,199,1.8,0.36,6.12,16.1,68.3,1016.92,0,0,0,0,0.021782
2022/10/01 04:17:00.001,n,193,2.52,1.8,3.6,16.1,68.1,1016.92,0,0,0,0,0.024376
2022/10/01 04:18:00.001,n,181,2.88,1.8,5.4,16.1,68.2,1016.92,0,0,0,0,0.026131
2022/10/01 04:19:00.001,n,159,3.96,3.6,4.68,16.1,68.2,1016.92,0,0,0,0,0.024376
2022/10/01 04:20:00.001,n,251,3.96,2.52,8.28,16.1,68.4,1016.92,0,0,0,0,0.025215
2022/10/01 04:21:00.004,n,277,3.6,3.24,3.96,16.1,68.6,1016.92,0,0,0,0,0.020866
2022/10/01 04:22:00.001,n,140,1.44,0.36,1.8,16.1,69.1,1016.92,0,0,0,0,0.026131
2022/10/01 04:23:00.001,n,210,1.8,0.36,4.68,16.1,68.7,1016.92,0,0,0,0,0.020866
2022/10/01 04:24:00.001,n,252,3.24,1.08,3.96,16.1,68.6,1016.92,0,0,0,0,0.022621
2022/10/01 04:25:00.003,n,246,3.24,1.44,4.32,16.1,68.8,1016.92,0,0,0,0,0.023499
2022/10/01 04:26:00.007,n,276,3.6,3.24,4.32,16,68.9,1016.92,0,0,0,0,0.021782
2022/10/01 04:27:00.008,n,204,2.88,1.44,4.32,16,69,1016.92,0,0,0,0,0.020866
2022/10/01 04:28:00.010,n,283,3.96,3.6,4.68,16,69.1,1016.92,0,0,0,0,0.021782
2022/10/01 04:29:00.014,n,275,3.96,2.88,5.04,16,69.1,1016.92,0,0,0,0,0.017395
2022/10/01 04:30:00.016,n,277,4.32,3.6,5.4,16,69.1,1016.92,0,0,0,0,0.025215
2022/10/01 04:31:00.004,n,213,2.88,0.72,3.96,15.9,69.1,1016.92,0,0,0,0,0.020866
2022/10/01 04:32:00.002,n,271,5.4,4.68,5.76,15.9,69.1,1016.92,0,0,0,0,0.022621
2022/10/01 04:33:00.002,n,246,3.24,1.08,3.96,15.9,69.2,1016.92,0,0,0,0,0.022621
2022/10/01 04:34:00.001,n,230,3.6,2.88,4.68,15.8,69.1,1016.92,0,0,0,0,0.023499
2022/10/01 04:35:00.002,n,245,5.4,4.32,6.48,15.8,69.1,1016.92,0,0,0,0,0.021782
2022/10/01 04:36:00.001,n,253,6.12,4.32,7.56,15.8,69.1,1017.02,0,0,0,0,0.021782
2022/10/01 04:37:00.005,n,271,3.24,2.52,3.96,15.8,69.5,1017.02,0,0,0,0,0.022621
2022/10/01 04:38:00.007,n,235,4.32,1.44,5.4,15.8,69.4,1017.02,0,0,0,0,0.018272
2022/10/01 04:39:00.011,n,230,2.52,2.52,3.24,15.8,69.2,1017.02,0,0,0,0,0.019989
2022/10/01 04:40:00.001,n,282,6.84,6.12,7.2,15.8,69.2,1017.02,0,0,0,0,0.01915
2022/10/01 04:41:00.001,n,211,2.52,2.16,3.96,15.8,69.2,1017.02,0,0,0,0,0.017395
2022/10/01 04:42:00.002,n,47,0.36,0,0.36,15.8,69.3,1017.12,0,0,0,0,0.017395
2022/10/01 04:43:00.003,n,282,3.96,2.88,5.76,15.7,69.3,1017.12,0,0,0,0,0.022621
2022/10/01 04:44:00.006,n,269,1.44,1.08,2.16,15.7,69.3,1017.12,0,0,0,0,0.019989
2022/10/01 04:45:00.009,n,201,2.16,0.36,5.4,15.7,69.3,1017.12,0,0,0,0,0.022621
2022/10/01 04:46:00.002,n,262,1.44,0.36,5.04,15.7,69.7,1017.12,0,0,0,0,0.018272
2022/10/01 04:47:00.004,n,342,2.16,0.72,3.6,15.7,70,1017.12,0,0,0,0,0.019989
2022/10/01 04:48:00.007,n,201,2.88,0.72,3.6,15.8,69.6,1017.12,0,0,0,0,0.01915
2022/10/01 04:49:00.002,n,287,2.88,0.72,3.96,15.8,69.8,1017.12,0,0,0,0,0.019989
2022/10/01 04:50:00.002,n,350,2.16,1.08,3.6,15.8,69.7,1017.12,0,0,0,0,0.019989